This is the latest recevied weather packets stored in our database for station/object N6OL. If no packets are shown the sender has not sent any weather packets the latest 10 day(s).
| Time | Temp. | Humidity | Pressure | Rain* | Wind** | Luminosity | Snow |
|---|---|---|---|---|---|---|---|
| 1777829403 | 14.44° C | 77% | 1012.6 hPa | 0 mm | - | 473 W/m² | - |
| 1777828524 | 13.89° C | 80% | 1012.7 hPa | 0 mm | - | 369 W/m² | - |
| 1777828203 | 13.89° C | 81% | 1012.7 hPa | 0 mm | - | 323 W/m² | - |
| 1777827603 | 13.89° C | 85% | 1012.9 hPa | 0 mm | - | 218 W/m² | - |
| 1777826724 | 13.89° C | 85% | 1012.9 hPa | 0 mm | - | 287 W/m² | - |
| 1777820703 | 12.78° C | 86% | 1012.3 hPa | 0 mm | - | 63 W/m² | - |
| 1777819524 | 12.78° C | 84% | 1012.1 hPa | 0 mm | - | 23 W/m² | - |
| 1777819203 | 12.78° C | 83% | 1012.1 hPa | 0 mm | - | 19 W/m² | - |
| 1777814124 | 12.78° C | 81% | 1011.1 hPa | 0 mm | - | 0 W/m² | - |
| 1777811103 | 12.78° C | 81% | 1010.6 hPa | 0 mm | - | 0 W/m² | - |
| 1777806624 | 12.78° C | 82% | 1011 hPa | 0 mm | - | 0 W/m² | - |
| 1777801503 | 12.78° C | 81% | 1010.9 hPa | 0 mm | - | 0 W/m² | - |
| 1777797603 | 12.78° C | 80% | 1011.6 hPa | 0 mm | - | 0 W/m² | - |
| 1777796703 | 12.78° C | 81% | 1011.7 hPa | 0 mm | - | 0 W/m² | - |
| 1777796103 | 12.78° C | 81% | 1011.6 hPa | 0 mm | - | 0 W/m² | - |
| 1777794603 | 12.78° C | 81% | 1011.9 hPa | 0 mm | - | 0 W/m² | - |
| 1777793124 | 12.78° C | 81% | 1011.8 hPa | 0 mm | - | 0 W/m² | - |
| 1777787724 | 12.78° C | 81% | 1012.1 hPa | 0 mm | - | 0 W/m² | - |
| 1777786503 | 12.78° C | 81% | 1012.2 hPa | 0 mm | - | 0 W/m² | - |
| 1777785003 | 12.78° C | 80% | 1012.3 hPa | 0 mm | - | 0 W/m² | - |
| 1777784703 | 12.78° C | 80% | 1012.3 hPa | 0 mm | - | 0 W/m² | - |
| 1777782303 | 12.78° C | 80% | 1012.2 hPa | 0 mm | - | 0 W/m² | - |
| 1777781724 | 12.78° C | 80% | 1012.2 hPa | 0 mm | - | 0 W/m² | - |
| 1777779303 | 13.33° C | 79% | 1012 hPa | 0 mm | - | 0 W/m² | - |
| 1777778103 | 13.33° C | 79% | 1011.6 hPa | 0 mm | - | 0 W/m² | - |
* Rain latest hour (hover to see other rain measurements)
** Current wind speed in m/s (hover to see current wind gust speed)